Home > Weather > Bordeaux > Past weeks

Flag for France Weather for the Past 2 Weeks in Bordeaux, France

Now
50 °F

Sunny.


Feels Like: 44 °F
Forecast: 43 / 51 °F
Wind: 17 mph from West

Location: Bordeaux / Merignac

Current Time: Feb 9, 2016 at 6:01:51 PM

Latest Report: Feb 9, 2016 at 5:00 PM


Visibility: 10 mi

Pressure: 29.68 "Hg

Humidity: 54%

Dew point: 34 °F

Location of BordeauxLocation

Historic Weather in Bordeaux — Graph

°F

Bordeaux Temperature Yesterday

Maximum temperature yesterday: 59 °F (at 12:30 PM)
Minimum temperature yesterday: 50 °F (at 12:00 AM)
Average temperature yesterday: 54 °F

High & Low Weather Summary for the Past Weeks

 TemperatureHumidityPressure
High61 °F (Feb 5, 4:30 PM)100% (Jan 26, 1:30 AM)30.69 "Hg (Jan 26, 1:30 AM)
Low37 °F (Feb 4, 12:30 AM)48% (Feb 6, 5:00 PM)29.59 "Hg (Feb 9, 11:30 AM)
Average51 °F87%30.28 "Hg
* Reported Jan 25 5:00 PM — Feb 9 5:00 PM, Bordeaux, Weather by CustomWeather, © 2016

Note: Actual official high and low records may vary slightly from our data, if they occured in-between our weather recording intervals... More about our weather records

Advertising

Bordeaux Weather History for the Previous 24 Hours

 ConditionsComfort  
Time TempWeatherWind HumidityBarometerVisibility
5:00 PM
Tue, Feb 9
50 °FSunny.17 mph54%29.68 "Hg10 mi
4:30 PM48 °FLight rain. Broken clouds.25 mph66%29.68 "HgN/A
4:00 PM52 °FBroken clouds.22 mph58%29.65 "HgN/A
3:30 PM52 °FPartly sunny.17 mph72%29.62 "HgN/A
3:00 PM50 °FBroken clouds.16 mph67%29.65 "HgN/A
2:30 PM52 °FLight rain. Broken clouds.22 mph77%29.65 "HgN/A
2:00 PM52 °FLight rain. Broken clouds.20 mph82%29.62 "HgN/A
1:30 PM52 °FLight rain. Broken clouds.22 mph88%29.62 "HgN/A
1:00 PM52 °FLight rain. Partly sunny.20 mph94%29.62 "Hg6 mi
12:30 PM52 °FRain. Fog.28 mph94%29.62 "Hg2 mi
11:30 AM55 °FLight rain. Partly sunny.14 mph88%29.59 "Hg4 mi
11:00 AM55 °FRain. Fog.16 mph88%29.62 "Hg3 mi
10:30 AM55 °FMostly cloudy.18 mph88%29.62 "HgN/A
9:30 AM54 °FLight rain. Overcast.16 mph94%29.68 "HgN/A
9:00 AM54 °FRain. Fog.14 mph94%29.71 "Hg3 mi
8:30 AM54 °FRain. Fog.9 mph94%29.71 "Hg3 mi
8:00 AM54 °FRain. Partly cloudy.9 mph94%29.71 "Hg4 mi
7:30 AM54 °FLight rain. Mostly cloudy.8 mph94%29.71 "Hg4 mi
7:00 AM54 °FLight rain. Passing clouds.12 mph94%29.74 "Hg6 mi
6:30 AM54 °FRain. Passing clouds.12 mph94%29.74 "Hg4 mi
6:00 AM52 °FRain. Passing clouds.10 mph100%29.77 "Hg4 mi
5:30 AM52 °FLight rain. Partly cloudy.10 mph100%29.80 "HgN/A
4:30 AM52 °FPartly cloudy.7 mph94%29.83 "Hg6 mi
4:00 AM52 °FLight rain. Passing clouds.7 mph94%29.86 "Hg4 mi
3:30 AM52 °FPassing clouds.12 mph94%29.89 "HgN/A
3:00 AM54 °FLight rain. Mostly cloudy.10 mph88%29.89 "Hg6 mi
2:30 AM54 °FRain. Partly cloudy.13 mph94%29.92 "Hg4 mi
2:00 AM52 °FLight rain. Mostly cloudy.7 mph100%29.92 "Hg4 mi
1:30 AM52 °FLight rain. Low clouds.12 mph100%29.92 "Hg4 mi
1:00 AM52 °FLight rain. Passing clouds.10 mph100%29.92 "Hg5 mi
12:30 AM52 °FMostly cloudy.8 mph100%29.95 "Hg6 mi
12:00 AM52 °FLight rain. Fog.10 mph100%29.95 "Hg3 mi
11:00 PM
Mon, Feb 8
52 °FRain. Fog.10 mph94%30.01 "Hg2 mi
10:30 PM52 °FLight rain. Passing clouds.9 mph94%30.01 "Hg6 mi
10:00 PM54 °FHeavy rain. Mostly cloudy.8 mph82%30.01 "HgN/A
9:30 PM55 °FClear.15 mph72%30.01 "Hg10 mi
9:00 PM55 °FPassing clouds.13 mph77%30.01 "HgN/A
8:30 PM55 °FMostly cloudy.10 mph77%30.01 "HgN/A
8:00 PM55 °FPartly cloudy.10 mph77%30.04 "HgN/A
7:30 PM55 °FMostly cloudy.14 mph77%30.04 "HgN/A
7:00 PM55 °FOvercast.14 mph82%30.04 "HgN/A
6:30 PM55 °FPassing clouds.13 mph82%30.04 "HgN/A
6:00 PM55 °FPartly sunny.16 mph82%30.04 "HgN/A
Weather by CustomWeather, © 2016

See weather overviewHow to use our weather pages